Radiation Dose at Monitoring Post of Fukushima Daini Nuclear Power Station
Date,Time,MP-1(microSv/h),MP-2(microSv/h),MP-3(microSv/h),MP-4(microSv/h),MP-5(microSv/h),MP-6(microSv/h),MP-7(microSv/h),Wind Direction,Wind Velocity(m/s),Rain
2024/01/30,00:00,0.148,0.131,0.210,0.200,0.206,0.118,0.076,west-northwest,3.1,No
2024/01/30,00:10,0.147,0.130,0.209,0.199,0.207,0.116,0.076,west-northwest,4.4,No
2024/01/30,00:20,0.148,0.130,0.209,0.200,0.207,0.118,0.075,west-northwest,3.9,No
2024/01/30,00:30,0.148,0.131,0.210,0.200,0.206,0.117,0.076,west-northwest,3.8,No
2024/01/30,00:40,0.147,0.131,0.209,0.200,0.206,0.117,0.076,west-northwest,4.2,No
2024/01/30,00:50,0.148,0.131,0.210,0.198,0.206,0.118,0.077,west,5.6,No
2024/01/30,01:00,0.148,0.130,0.209,0.200,0.207,0.116,0.076,west-northwest,6.7,No
2024/01/30,01:10,0.147,0.130,0.209,0.199,0.206,0.118,0.076,west-northwest,7.3,No
2024/01/30,01:20,0.147,0.131,0.210,0.199,0.205,0.118,0.077,west-northwest,7.3,No
2024/01/30,01:30,0.148,0.131,0.209,0.201,0.206,0.117,0.076,west-northwest,7.3,No
2024/01/30,01:40,0.148,0.131,0.211,0.201,0.206,0.118,0.076,west-northwest,7.1,No
2024/01/30,01:50,0.148,0.131,0.209,0.199,0.207,0.118,0.076,west-northwest,7.7,No
2024/01/30,02:00,0.148,0.131,0.210,0.200,0.206,0.118,0.076,west-northwest,7.8,No
2024/01/30,02:10,0.147,0.131,0.210,0.199,0.205,0.117,0.076,west-northwest,7.6,No
2024/01/30,02:20,0.148,0.130,0.210,0.199,0.207,0.118,0.076,west-northwest,7.9,No
2024/01/30,02:30,0.148,0.130,0.209,0.199,0.206,0.117,0.076,west-northwest,7.5,No
2024/01/30,02:40,0.148,0.130,0.210,0.199,0.207,0.117,0.076,west-northwest,6.6,No
2024/01/30,02:50,0.148,0.130,0.210,0.199,0.206,0.117,0.076,west-northwest,6.5,No
2024/01/30,03:00,0.147,0.130,0.210,0.199,0.207,0.117,0.076,west-northwest,6.4,No
2024/01/30,03:10,0.147,0.130,0.210,0.200,0.206,0.118,0.076,west-northwest,8.4,No
2024/01/30,03:20,0.147,0.131,0.209,0.200,0.207,0.118,0.076,west-northwest,7.5,No
2024/01/30,03:30,0.148,0.130,0.210,0.200,0.206,0.118,0.076,west-northwest,6.8,No
2024/01/30,03:40,0.148,0.130,0.208,0.200,0.207,0.118,0.077,northwest,5.1,No
2024/01/30,03:50,0.148,0.131,0.210,0.199,0.206,0.117,0.076,northwest,3.8,No
2024/01/30,04:00,0.147,0.131,0.209,0.199,0.206,0.118,0.077,northwest,3.4,No
2024/01/30,04:10,0.148,0.131,0.210,0.199,0.207,0.117,0.077,northwest,5.9,No
2024/01/30,04:20,0.149,0.131,0.209,0.200,0.206,0.118,0.076,west-northwest,5.6,No
2024/01/30,04:30,0.147,0.131,0.210,0.199,0.206,0.118,0.075,west-northwest,4.1,No
2024/01/30,04:40,0.148,0.131,0.210,0.201,0.206,0.117,0.077,west-northwest,5.3,No
2024/01/30,04:50,0.148,0.130,0.210,0.199,0.206,0.117,0.076,west-northwest,4.8,No
2024/01/30,05:00,0.149,0.131,0.209,0.200,0.206,0.118,0.076,west,4.8,No
2024/01/30,05:10,0.148,0.130,0.209,0.199,0.206,0.117,0.077,west,5.1,No
2024/01/30,05:20,0.148,0.130,0.208,0.200,0.205,0.117,0.077,west,5.1,No
2024/01/30,05:30,0.148,0.131,0.210,0.199,0.206,0.119,0.077,west,4.3,No
2024/01/30,05:40,0.148,0.131,0.210,0.201,0.207,0.118,0.076,west-northwest,4.9,No
2024/01/30,05:50,0.146,0.131,0.210,0.200,0.207,0.117,0.076,west,4.4,No
2024/01/30,06:00,0.149,0.130,0.210,0.199,0.206,0.118,0.076,west-northwest,3.9,No
2024/01/30,06:10,0.147,0.130,0.210,0.199,0.207,0.118,0.077,west-northwest,4.5,No
2024/01/30,06:20,0.147,0.130,0.209,0.200,0.206,0.118,0.077,west-northwest,5.4,No
2024/01/30,06:30,0.149,0.131,0.209,0.200,0.206,0.118,0.076,west-northwest,6.3,No
2024/01/30,06:40,0.149,0.132,0.210,0.198,0.206,0.117,0.077,west-northwest,5.8,No
2024/01/30,06:50,0.148,0.128,0.209,0.199,0.206,0.118,0.076,west-northwest,3.5,No
2024/01/30,07:00,0.148,0.131,0.209,0.198,0.207,0.118,0.077,northwest,1.4,No
2024/01/30,07:10,0.147,0.129,0.210,0.200,0.207,0.118,0.076,northwest,2.2,No
2024/01/30,07:20,0.148,0.131,0.209,0.199,0.206,0.117,0.076,west,2.3,No
2024/01/30,07:30,0.148,0.130,0.210,0.200,0.206,0.117,0.076,west,1.9,No
2024/01/30,07:40,0.148,0.131,0.210,0.200,0.207,0.117,0.076,west,0.8,No
2024/01/30,07:50,0.148,0.130,0.210,0.198,0.207,0.118,0.075,west,0.8,No
2024/01/30,08:00,0.147,0.130,0.210,0.199,0.207,0.118,0.075,west,1.6,No
2024/01/30,08:10,0.147,0.130,0.210,0.199,0.206,0.117,0.076,north-northwest,0.8,No
2024/01/30,08:20,0.148,0.130,0.209,0.198,0.206,0.117,0.076,north,1.1,No
2024/01/30,08:30,0.148,0.131,0.209,0.199,0.207,0.117,0.076,north,0.9,No
2024/01/30,08:40,0.148,0.130,0.210,0.199,0.207,0.117,0.076,north,1.2,No
2024/01/30,08:50,0.148,0.131,0.209,0.198,0.206,0.118,0.076,north,0.9,No
2024/01/30,09:00,0.148,0.130,0.209,0.199,0.207,0.117,0.076,north-northeast,1.3,No
2024/01/30,09:10,0.148,0.130,0.210,0.200,0.207,0.118,0.077,west-northwest,1.3,No
2024/01/30,09:20,0.148,0.131,0.209,0.198,0.207,0.118,0.077,west-northwest,0.8,No
2024/01/30,09:30,0.147,0.131,0.209,0.199,0.206,0.118,0.076,north-northwest,1.0,No
2024/01/30,09:40,0.148,0.131,0.210,0.198,0.207,0.117,0.076,northwest,1.0,No
2024/01/30,09:50,0.148,0.130,0.210,0.199,0.206,0.118,0.076,north-northwest,1.4,No
2024/01/30,10:00,0.149,0.130,0.208,0.198,0.207,0.118,0.076,north-northwest,1.7,No
2024/01/30,10:10,0.147,0.130,0.208,0.198,0.206,0.117,0.076,north-northwest,1.6,No
2024/01/30,10:20,0.148,0.130,0.209,0.200,0.205,0.117,0.075,northwest,2.8,No
2024/01/30,10:30,0.146,0.130,0.209,0.198,0.206,0.117,0.076,northwest,2.8,No
2024/01/30,10:40,0.148,0.130,0.208,0.199,0.205,0.118,0.076,northwest,3.3,No
2024/01/30,10:50,0.147,0.130,0.209,0.199,0.207,0.117,0.076,northwest,3.4,No
2024/01/30,11:00,0.148,0.130,0.208,0.199,0.205,0.118,0.077,north-northwest,2.7,No
2024/01/30,11:10,0.147,0.130,0.209,0.199,0.207,0.117,0.076,northwest,3.0,No
2024/01/30,11:20,0.147,0.131,0.209,0.199,0.206,0.118,0.077,north,1.9,No
2024/01/30,11:30,0.147,0.130,0.210,0.199,0.207,0.117,0.076,northeast,2.3,No
2024/01/30,11:40,0.148,0.130,0.209,0.198,0.207,0.118,0.076,north,2.0,No
2024/01/30,11:50,0.147,0.130,0.208,0.199,0.207,0.117,0.077,north-northeast,4.9,No
2024/01/30,12:00,0.146,0.130,0.210,0.200,0.208,0.117,0.076,north-northeast,4.0,No
2024/01/30,12:10,0.149,0.131,0.209,0.199,0.206,0.117,0.076,northeast,4.1,No
2024/01/30,12:20,0.148,0.130,0.208,0.201,0.207,0.118,0.076,north-northeast,2.6,No
2024/01/30,12:30,0.148,0.131,0.210,0.198,0.205,0.118,0.077,northeast,4.1,No
2024/01/30,12:40,0.147,0.129,0.209,0.200,0.207,0.118,0.076,northeast,1.2,No
2024/01/30,12:50,0.148,0.131,0.210,0.197,0.206,0.118,0.076,southwest,1.1,No
2024/01/30,13:00,0.147,0.130,0.208,0.199,0.207,0.117,0.077,west,4.6,No
2024/01/30,13:10,0.148,0.131,0.209,0.198,0.205,0.118,0.076,west,3.3,No
2024/01/30,13:20,0.147,0.130,0.209,0.199,0.207,0.118,0.077,west,3.6,No
2024/01/30,13:30,0.147,0.132,0.211,0.199,0.208,0.118,0.076,west,3.4,No
2024/01/30,13:40,0.147,0.130,0.210,0.199,0.207,0.118,0.076,west-northwest,2.5,No
2024/01/30,13:50,0.148,0.129,0.211,0.199,0.208,0.118,0.077,west-northwest,3.0,No
2024/01/30,14:00,0.147,0.132,0.209,0.200,0.205,0.118,0.076,west-northwest,2.1,No
2024/01/30,14:10,0.147,0.130,0.210,0.198,0.206,0.119,0.077,west,3.5,No
2024/01/30,14:20,0.148,0.130,0.210,0.199,0.205,0.116,0.076,north-northwest,1.0,No
2024/01/30,14:30,0.148,0.131,0.209,0.199,0.205,0.118,0.077,west,2.0,No
2024/01/30,14:40,0.148,0.130,0.210,0.201,0.207,0.118,0.076,west-southwest,2.0,No
2024/01/30,14:50,0.148,0.131,0.210,0.200,0.206,0.117,0.077,northwest,0.7,No
2024/01/30,15:00,0.147,0.130,0.210,0.200,0.207,0.119,0.077,east-northeast,1.9,No
2024/01/30,15:10,0.148,0.131,0.212,0.199,0.208,0.118,0.076,northeast,1.4,No
2024/01/30,15:20,0.148,0.132,0.209,0.200,0.207,0.118,0.076,west-northwest,1.8,No
2024/01/30,15:30,0.147,0.131,0.210,0.201,0.209,0.118,0.076,west-northwest,1.3,No
2024/01/30,15:40,0.149,0.131,0.211,0.200,0.206,0.119,0.076,north,1.4,No
2024/01/30,15:50,0.148,0.130,0.210,0.201,0.208,0.118,0.076,-,CALM,No
2024/01/30,16:00,0.147,0.131,0.210,0.200,0.208,0.118,0.077,west-southwest,1.4,No
2024/01/30,16:10,0.148,0.130,0.210,0.201,0.207,0.118,0.076,west-southwest,0.8,No
2024/01/30,16:20,0.147,0.130,0.211,0.200,0.209,0.118,0.076,-,CALM,No
2024/01/30,16:30,0.148,0.132,0.210,0.200,0.207,0.118,0.076,northwest,0.9,No
2024/01/30,16:40,0.148,0.131,0.209,0.200,0.207,0.118,0.076,west-northwest,3.0,No
2024/01/30,16:50,0.149,0.131,0.210,0.200,0.208,0.118,0.076,west-northwest,3.8,No
2024/01/30,17:00,0.149,0.131,0.210,0.199,0.206,0.119,0.076,west-northwest,4.0,No
2024/01/30,17:10,0.148,0.131,0.210,0.199,0.206,0.119,0.076,west-northwest,5.3,No
2024/01/30,17:20,0.149,0.132,0.209,0.199,0.208,0.119,0.076,west-northwest,5.5,No
2024/01/30,17:30,0.148,0.131,0.210,0.201,0.207,0.118,0.076,west-northwest,5.0,No
2024/01/30,17:40,0.147,0.131,0.210,0.201,0.207,0.119,0.077,west-northwest,5.6,No
2024/01/30,17:50,0.148,0.131,0.211,0.199,0.207,0.119,0.076,west-northwest,5.6,No
2024/01/30,18:00,0.149,0.130,0.210,0.200,0.206,0.118,0.076,west-northwest,5.3,No
2024/01/30,18:10,0.148,0.131,0.211,0.200,0.207,0.118,0.076,west-northwest,3.4,No
2024/01/30,18:20,0.149,0.131,0.211,0.201,0.206,0.118,0.076,northwest,3.4,No
2024/01/30,18:30,0.148,0.131,0.210,0.200,0.206,0.118,0.077,north-northwest,4.3,No
2024/01/30,18:40,0.149,0.131,0.210,0.199,0.206,0.119,0.078,north-northwest,4.9,No
2024/01/30,18:50,0.149,0.131,0.211,0.200,0.207,0.119,0.076,north-northwest,4.1,No
2024/01/30,19:00,0.147,0.131,0.210,0.202,0.208,0.118,0.077,north-northwest,4.3,No
2024/01/30,19:10,0.148,0.132,0.211,0.201,0.206,0.118,0.076,north-northwest,4.2,No
2024/01/30,19:20,0.148,0.131,0.211,0.200,0.207,0.118,0.076,north-northwest,4.6,No
2024/01/30,19:30,0.148,0.131,0.211,0.199,0.207,0.118,0.076,north-northwest,4.8,No
2024/01/30,19:40,0.149,0.131,0.211,0.200,0.207,0.118,0.076,northwest,4.2,No
2024/01/30,19:50,0.148,0.132,0.211,0.200,0.207,0.119,0.077,northwest,4.1,No
2024/01/30,20:00,0.148,0.131,0.212,0.201,0.206,0.118,0.077,northwest,2.6,No
2024/01/30,20:10,0.149,0.130,0.212,0.200,0.207,0.119,0.077,north-northwest,2.3,No
2024/01/30,20:20,0.149,0.132,0.211,0.201,0.208,0.118,0.076,northwest,3.0,No
2024/01/30,20:30,0.149,0.131,0.212,0.200,0.208,0.118,0.078,west-northwest,2.6,No
2024/01/30,20:40,0.148,0.131,0.211,0.200,0.207,0.118,0.077,northwest,2.4,No
2024/01/30,20:50,0.148,0.131,0.210,0.202,0.207,0.119,0.077,west-northwest,1.4,No
2024/01/30,21:00,0.149,0.132,0.210,0.202,0.208,0.119,0.076,west-northwest,0.9,No
2024/01/30,21:10,0.149,0.132,0.211,0.200,0.207,0.118,0.076,northwest,0.7,No
2024/01/30,21:20,0.148,0.132,0.212,0.200,0.206,0.119,0.077,west-northwest,0.6,No
2024/01/30,21:30,0.149,0.131,0.210,0.199,0.207,0.119,0.077,northwest,0.9,No
2024/01/30,21:40,0.149,0.131,0.211,0.200,0.206,0.118,0.077,northwest,0.7,No
2024/01/30,21:50,0.147,0.131,0.211,0.200,0.207,0.119,0.076,northwest,1.1,No
2024/01/30,22:00,0.149,0.132,0.211,0.200,0.207,0.118,0.077,-,CALM,No
2024/01/30,22:10,0.148,0.132,0.210,0.199,0.207,0.118,0.076,-,CALM,No
2024/01/30,22:20,0.148,0.132,0.211,0.200,0.206,0.119,0.077,north-northwest,0.8,No
2024/01/30,22:30,0.148,0.132,0.211,0.201,0.207,0.118,0.077,north-northwest,1.3,No
2024/01/30,22:40,0.147,0.131,0.211,0.200,0.207,0.118,0.077,north-northwest,1.9,No
2024/01/30,22:50,0.148,0.131,0.212,0.199,0.207,0.119,0.076,north-northwest,1.9,No
2024/01/30,23:00,0.148,0.132,0.210,0.200,0.208,0.118,0.077,north-northwest,1.5,No
2024/01/30,23:10,0.148,0.132,0.210,0.200,0.207,0.118,0.078,north-northwest,1.6,No
2024/01/30,23:20,0.148,0.131,0.210,0.201,0.206,0.118,0.077,north-northwest,2.3,No
2024/01/30,23:30,0.148,0.131,0.211,0.200,0.208,0.118,0.077,north-northwest,1.7,No
2024/01/30,23:40,0.149,0.131,0.211,0.201,0.207,0.118,0.076,north-northwest,1.6,No
2024/01/30,23:50,0.148,0.131,0.211,0.199,0.207,0.119,0.076,north-northwest,1.8,No
